Location: Newark
(54.1978°N, 18.3264°E)
Time: 20:36:11
(UTC+00:00)

OTV 5 (USA 277) - Pass Details

Date: 30 August 2019
Orbit: 310 x 324 km, 54.5° (Epoch: 17 October)

Event Time Altitude Azimuth Distance (km) Brightness Sun altitude
Rises 20:57:21 0° 281° (W) 2,043 ? -22.8°
Reaches altitude 10° 20:59:19 10° 280° (W) 1,211 ? -23.0°
Enters shadow 20:59:38 13° 279° (W) 1,077 ? -23.0°
